Total_Precipitation_Accumulation
1.39 1.46 1.52 1.53 1.56 1.54 1.51 1.43 1.50 1.56 1.60 1.62 1.69 1.80 1.84 1.85 1.96 2.10 2.09 2.22 2.22 2.23 2.23 2.36 2.51 2.75 2.70 2.52 2.65 2.79 3.00 3.24 2.89 2.63 2.47 2.23 2.23 2.13 2.03 1.94 1.79 1.76 1.60
1.36 1.49 1.68 1.65 1.65 1.61 1.48 1.42 1.47 1.48 1.51 1.55 1.66 1.75 1.74 1.82 2.00 2.08 2.06 2.22 2.27 2.25 2.31 2.43 2.40 2.51 2.57 2.46 2.45 2.47 2.71 2.96 2.87 2.74 2.78 2.65 2.46 2.34 2.31 2.19 1.84 1.70 1.67
1.45 1.52 1.65 1.67 1.63 1.53 1.45 1.41 1.42 1.43 1.47 1.51 1.53 1.57 1.64 1.75 1.90 1.97 2.08 2.18 2.29 2.32 2.28 2.18 2.10 2.24 2.38 2.56 2.56 2.48 2.54 2.68 2.89 2.82 2.76 2.81 2.56 2.35 2.47 2.32 2.10 2.09 1.67
1.25 1.31 1.41 1.37 1.38 1.39 1.40 1.39 1.36 1.42 1.46 1.53 1.54 1.63 1.68 1.73 1.79 1.90 2.01 1.95 1.92 1.91 1.89 1.88 1.87 1.95 2.15 2.56 2.58 2.62 2.65 2.67 2.87 2.90 2.88 2.91 2.94 2.70 2.68 2.46 2.32 2.18 1.91
1.18 1.24 1.33 1.39 1.39 1.41 1.35 1.29 1.37 1.43 1.40 1.53 1.62 1.62 1.67 1.70 1.62 1.71 1.70 1.61 1.69 1.60 1.54 1.53 1.54 1.66 1.71 1.88 1.93 2.26 2.53 2.62 2.72 2.85 2.88 2.91 2.93 3.03 2.73 2.56 2.51 2.42 2.26
0.97 1.07 1.30 1.44 1.47 1.42 1.32 1.34 1.40 1.46 1.53 1.61 1.66 1.64 1.62 1.48 1.63 1.65 1.60 1.52 1.52 1.49 1.43 1.39 1.33 1.40 1.49 1.51 1.49 1.67 1.94 2.22 2.54 2.78 2.84 2.88 2.95 3.02 3.02 2.84 2.72 2.55 2.43
0.95 1.04 1.13 1.26 1.33 1.28 1.21 1.26 1.30 1.39 1.52 1.59 1.66 1.75 1.74 1.76 1.76 1.65 1.55 1.43 1.40 1.38 1.36 1.38 1.18 1.14 1.28 1.21 1.34 1.37 1.43 1.61 1.79 2.19 2.47 2.54 2.68 2.80 3.01 2.91 2.84 2.76 2.63
1.11 1.18 1.17 1.24 1.36 1.37 1.33 1.35 1.44 1.51 1.54 1.60 1.64 1.70 1.77 1.73 1.75 1.59 1.46 1.26 1.27 1.34 1.33 1.34 1.32 1.28 1.30 1.31 1.37 1.31 1.24 1.30 1.39 1.45 1.55 1.76 2.03 2.38 2.69 2.84 2.94 2.93 2.91
1.20 1.29 1.34 1.40 1.50 1.55 1.53 1.61 1.69 1.76 1.66 1.65 1.71 1.78 1.83 1.85 1.83 1.57 1.43 1.26 1.28 1.35 1.30 1.30 1.36 1.29 1.34 1.26 1.25 1.28 1.24 1.21 1.23 1.30 1.26 1.39 1.54 1.76 2.07 2.29 2.47 2.70 2.95
1.36 1.39 1.47 1.61 1.69 1.75 1.92 2.14 2.21 2.21 2.09 2.00 1.85 1.82 1.80 1.85 1.87 1.62 1.51 1.35 1.42 1.50 1.54 1.51 1.48 1.37 1.31 1.24 1.16 1.22 1.20 1.18 1.24 1.23 1.18 1.15 1.16 1.30 1.55 1.69 1.87 2.16 2.43
1.74 1.78 1.81 1.90 2.01 2.08 2.30 2.48 2.51 2.50 2.58 2.50 2.29 2.13 2.08 2.06 2.02 1.83 1.81 1.67 1.76 1.85 1.76 1.64 1.53 1.44 1.23 1.15 1.10 1.09 1.12 1.18 1.27 1.33 1.31 1.25 1.22 1.20 1.27 1.41 1.62 1.75 1.90
1.87 1.94 2.04 2.22 2.15 2.21 2.47 2.54 2.65 2.79 2.80 2.65 2.62 2.51 2.39 2.36 2.15 1.97 1.88 1.77 1.71 1.73 1.73 1.61 1.50 1.39 1.16 1.05 0.99 0.97 1.01 0.98 0.99 1.10 1.16 1.20 1.20 1.14 1.16 1.31 1.52 1.70 1.71
2.04 2.10 2.25 2.44 2.57 2.64 2.79 2.88 2.86 2.84 2.81 2.75 2.75 2.65 2.56 2.51 2.31 1.96 1.78 1.71 1.61 1.51 1.52 1.53 1.44 1.32 1.17 1.02 1.02 1.00 0.92 0.88 0.95 1.01 1.05 1.13 1.17 1.14 1.16 1.28 1.43 1.63 1.65
2.12 2.17 2.31 2.46 2.55 2.63 2.81 2.87 2.85 2.81 2.81 2.85 2.85 2.71 2.58 2.47 2.30 2.06 1.81 1.65 1.55 1.41 1.38 1.45 1.39 1.26 1.12 1.07 1.07 0.99 0.90 0.96 1.07 1.05 1.05 1.12 1.24 1.28 1.28 1.28 1.41 1.51 1.61
2.24 2.31 2.44 2.59 2.71 2.80 2.73 2.79 2.84 2.83 2.74 2.64 2.62 2.59 2.56 2.45 2.34 2.15 1.91 1.75 1.66 1.58 1.49 1.45 1.43 1.32 1.23 1.19 1.22 1.22 1.21 1.19 1.14 1.13 1.18 1.24 1.32 1.38 1.39 1.42 1.48 1.51 1.47
2.30 2.34 2.44 2.54 2.69 2.71 2.70 2.63 2.58 2.47 2.42 2.28 2.31 2.34 2.29 2.24 2.13 1.91 1.76 1.68 1.66 1.69 1.58 1.53 1.60 1.60 1.54 1.47 1.44 1.44 1.41 1.34 1.31 1.34 1.38 1.38 1.37 1.37 1.35 1.44 1.55 1.56 1.51
2.34 2.35 2.37 2.36 2.46 2.58 2.61 2.56 2.45 2.36 2.25 2.11 2.04 1.98 1.90 1.90 1.85 1.79 1.78 1.77 1.73 1.66 1.53 1.58 1.69 1.75 1.76 1.74 1.66 1.56 1.50 1.42 1.37 1.37 1.37 1.38 1.37 1.42 1.45 1.49 1.57 1.61 1.59
2.25 2.29 2.23 2.20 2.30 2.46 2.50 2.52 2.50 2.42 2.34 2.22 2.11 2.02 1.83 1.68 1.65 1.70 1.79 1.75 1.66 1.58 1.56 1.70 1.79 1.82 1.88 1.87 1.74 1.65 1.57 1.50 1.44 1.45 1.49 1.54 1.55 1.55 1.54 1.51 1.52 1.55 1.60
2.20 2.18 2.20 2.23 2.29 2.36 2.43 2.49 2.49 2.40 2.33 2.20 1.98 1.82 1.75 1.64 1.59 1.62 1.58 1.50 1.57 1.65 1.70 1.82 1.87 1.86 1.78 1.71 1.67 1.63 1.56 1.51 1.49 1.50 1.51 1.53 1.53 1.55 1.57 1.58 1.59 1.67 1.64
2.07 2.21 2.25 2.18 2.18 2.25 2.36 2.43 2.42 2.40 2.39 2.33 2.16 1.86 1.67 1.54 1.44 1.49 1.43 1.40 1.46 1.50 1.54 1.63 1.72 1.77 1.74 1.69 1.63 1.55 1.50 1.47 1.44 1.44 1.43 1.44 1.49 1.50 1.47 1.52 1.56 1.53 1.52
2.01 2.04 2.16 2.10 2.04 2.08 2.16 2.20 2.25 2.23 2.16 2.12 2.06 1.91 1.76 1.59 1.56 1.51 1.47 1.46 1.43 1.39 1.44 1.55 1.60 1.58 1.53 1.50 1.51 1.48 1.47 1.48 1.46 1.43 1.46 1.48 1.49 1.47 1.38 1.36 1.38 1.39 1.39
2.10 2.06 1.98 1.97 1.98 2.03 2.06 2.04 2.04 1.99 1.92 1.87 1.81 1.72 1.67 1.53 1.53 1.51 1.47 1.45 1.37 1.30 1.29 1.31 1.35 1.37 1.34 1.31 1.34 1.38 1.39 1.36 1.38 1.36 1.35 1.36 1.38 1.37 1.36 1.36 1.38 1.42 1.49
2.07 2.02 1.91 1.81 1.75 1.85 1.85 1.82 1.80 1.75 1.72 1.68 1.62 1.51 1.44 1.44 1.40 1.34 1.29 1.24 1.20 1.18 1.18 1.21 1.23 1.23 1.19 1.16 1.16 1.21 1.22 1.18 1.19 1.24 1.29 1.32 1.33 1.28 1.28 1.31 1.31 1.38 1.43
1.94 1.91 1.82 1.70 1.57 1.55 1.61 1.69 1.72 1.70 1.67 1.56 1.44 1.35 1.31 1.30 1.23 1.10 1.04 1.02 1.01 0.97 0.98 1.02 0.99 0.96 0.98 1.01 1.03 1.02 1.01 0.98 0.97 1.03 1.05 1.12 1.17 1.14 1.15 1.17 1.15 1.21 1.34
1.73 1.70 1.70 1.67 1.50 1.38 1.47 1.55 1.54 1.48 1.44 1.36 1.24 1.20 1.15 1.09 1.05 1.00 0.95 0.91 0.88 0.87 0.81 0.81 0.83 0.82 0.84 0.84 0.85 0.85 0.83 0.79 0.76 0.78 0.82 0.90 0.99 1.03 1.05 1.08 1.14 1.24 1.34
1.55 1.55 1.53 1.51 1.40 1.28 1.30 1.40 1.40 1.32 1.30 1.21 1.09 1.08 1.07 1.02 0.99 0.98 0.94 0.88 0.85 0.79 0.74 0.74 0.75 0.75 0.73 0.74 0.72 0.69 0.68 0.64 0.64 0.68 0.68 0.75 0.88 0.98 1.01 1.06 1.06 1.12 1.20